#timestamp,LO_Frequency,Hit,StdDev 
1666810815.4,286046998.0,N
1666810835.2,286046997.2,N
1666810855.0,286046996.5,N
1666810856.0,286046996.5,N
1666810875.8,286046999.0,N
1666810895.6,286046999.1,N
1666810915.5,286046999.0,N
1666810935.3,286047000.0,N
1666810955.1,286047002.3,N
1666810975.9,286047002.6,N
1666810995.7,286047000.2,N
1666811015.6,286047002.5,N
1666811035.4,286047002.5,N
1666811055.2,286047002.5,N
1666811075.1,286047002.0,N
1666811076.0,286047002.0,N
1666811095.8,286047004.4,N
1666811115.6,286047001.6,N
1666811135.5,286047002.4,N
1666811155.3,286047001.8,N
1666811175.2,286047002.4,N
1666811195.9,286047002.7,N
1666811215.7,286046999.8,N
1666811235.6,286047002.8,N
1666811255.4,286047000.4,N
1666811275.2,286047000.2,N
1666811295.1,286047002.8,N
1666811296.0,286047002.8,N
1666811315.8,286046999.9,N
1666811335.7,286046998.3,N
1666811355.5,286046998.3,N
1666811375.3,286046999.0,N
1666811395.2,286046998.5,N
1666811415.0,286046999.5,N
1666811415.9,286046999.5,N
1666811435.8,286046998.9,N
1666811455.6,286046999.5,N
1666811475.4,286046999.2,N
1666811495.3,286046998.8,N
1666811515.1,286046999.0,N
1666811535.8,286046998.8,N
1666811555.7,286046999.5,N
1666811575.5,286046997.5,N
1666811595.4,286046997.2,N
1666811615.2,286046996.9,N
1666811635.0,286046999.5,N
1666811635.9,286046999.5,N
1666811655.8,286046999.2,N
1666811675.6,286046997.0,N
1666811695.4,286046997.7,N
1666811715.3,286046996.7,N
1666811735.1,286046997.7,N
1666811755.9,286046997.4,N
1666811775.7,286046996.9,N
1666811795.5,286046995.4,Y
1666811815.4,286046995.0,P
1666811835.2,286046996.1,N
1666811855.0,286046995.4,N
1666811856.0,286046995.4,Y
1666811875.8,286047001.2,P
1666811895.6,286046999.4,N
1666811915.5,286046998.7,N
1666811935.3,286047001.2,N
1666811955.1,286046998.4,N
1666811975.9,286046998.9,N
1666811995.7,286046999.3,N
1666812015.6,286046996.5,N
1666812035.4,286046999.1,N
1666812055.2,286046996.9,N
1666812075.1,286046997.3,N
1666812076.0,286046997.3,N
1666812095.8,286046995.0,Y
1666812115.6,286046999.2,P
1666812135.5,286046996.8,P
1666812155.3,286046996.8,P
1666812175.2,286046997.8,N
1666812195.9,286046995.3,Y
1666812215.7,286046998.6,P
1666812235.6,286046999.4,N
1666812255.4,286046996.9,P
1666812275.2,286046999.5,N
1666812295.1,286046998.4,N
1666812296.0,286046998.4,N
1666812315.8,286046998.6,N
1666812335.7,286046998.7,N
1666812355.5,286046997.0,Y
1666812375.3,286047000.5,P
1666812395.2,286047000.5,N
1666812415.0,286047001.0,N
1666812415.9,286047001.0,N
1666812435.7,286047002.5,N
1666812455.6,286047000.9,N
1666812475.4,286046998.2,N
1666812495.3,286047001.2,N
1666812515.1,286047001.1,N
1666812535.8,286047000.0,N
1666812555.7,286047000.6,N
1666812575.5,286046998.1,N
1666812595.4,286046999.0,N
1666812615.2,286046999.3,N
1666812635.0,286046999.0,N
1666812635.9,286046999.0,N
1666812655.8,286046998.4,N
1666812675.6,286046998.7,N
1666812695.4,286046998.2,N
1666812715.3,286047000.4,N
1666812735.1,286047000.0,N
1666812755.9,286047000.4,N
1666812775.7,286046999.9,N
1666812795.5,286047000.3,N
1666812815.4,286047000.7,N
1666812835.2,286047000.7,N
1666812855.1,286046999.2,N
1666812856.0,286046999.2,N
1666812875.8,286046998.8,N
1666812895.6,286046998.4,N
1666812915.5,286046996.6,Y
1666812935.3,286046999.1,P
1666812955.1,286046999.3,N
1666812975.9,286046999.6,N
1666812995.7,286046999.1,Y
1666813015.6,286046998.4,P
1666813035.4,286046998.7,N
1666813055.2,286046998.9,N
1666813075.1,286046998.9,N
1666813076.0,286046998.9,Y
1666813095.8,286047000.6,P
1666813115.7,286047000.0,N
1666813135.5,286047000.2,N
1666813155.3,286046999.9,N
1666813175.2,286047000.8,N
1666813195.0,286046999.9,N
1666813195.9,286046999.9,N
1666813215.8,286047000.1,N
1666813235.6,286047000.2,N
1666813255.4,286047000.5,N
1666813275.3,286047000.9,N
1666813295.1,286046998.2,Y
1666813315.8,286046998.3,P
1666813335.7,286047001.0,N
1666813355.5,286047000.4,N
1666813375.4,286046998.3,N
1666813395.2,286046999.3,N
1666813415.0,286046998.4,N
1666813415.9,286046998.4,N
1666813435.8,286046999.5,N
1666813455.6,286046999.6,N
1666813475.5,286046996.8,Y
1666813495.3,286046998.7,P
1666813515.1,286046999.3,N
1666813535.9,286046999.2,N
1666813555.7,286046998.7,Y
1666813575.6,286047000.3,P
1666813595.4,286047000.5,N
1666813615.2,286047001.2,N
1666813635.1,286047000.7,N
1666813636.0,286047000.7,N
1666813655.8,286046999.9,N
1666813675.6,286047000.5,N
1666813695.5,286047000.5,N
1666813715.3,286047000.2,N
1666813735.2,286047001.0,N
1666813755.9,286047001.1,N
1666813775.7,286047001.0,N
1666813795.6,286047000.6,N
1666813815.4,286047000.8,N
1666813835.3,286046998.3,Y
1666813855.1,286046998.4,P
1666813856.0,286046998.4,N
1666813875.8,286046998.5,N
1666813895.7,286047000.7,N
1666813915.5,286047000.6,N
1666813935.3,286047000.7,N
1666813955.2,286046998.6,N
1666813975.0,286046998.4,N
1666813975.9,286046998.4,N
1666813995.8,286046999.6,N
1666814015.6,286046998.8,N
1666814035.4,286046998.9,N
1666814055.3,286046999.4,N
1666814075.1,286046999.5,N
1666814095.8,286046999.4,N
1666814115.7,286046999.3,N
1666814135.5,286046999.2,N
1666814155.4,286046999.1,N
1666814175.2,286046997.2,Y
1666814195.0,286046999.4,P
1666814195.9,286046999.4,P
1666814215.8,286046999.4,P
1666814235.6,286046999.3,Y
1666814255.5,286047000.3,P
1666814275.3,286047000.0,N
1666814295.1,286047000.1,N
1666814315.9,286047002.8,Y
1666814335.7,286047002.7,P
1666814355.5,286047002.8,N
1666814375.4,286046999.8,N
1666814395.2,286047002.3,N
